www.pogodaiklimat.ru

Погода и климат >> Архив погоды >> Россия >> Чечня >> Шелковская


ПОГОДА в Шелковской

  • Прогноз погоды в Шелковской
  • Монитор погоды в Шелковской

АРХИВ ПОГОДЫ в Шелковской

Время (UTC), дата Ветер
(напр.,м/с)
 
Видим.   Явления Облачность Т
(С)
Тd
(С)
f
(%)
Тe
(С)
Тes
(С)
Комфортность P
(гПа)
Po
(гПа)
Тmin
(С)
Tmax
(С)
R
(мм)
R24
(мм)
S
(см)
21 13.08 ЮЗ 1 10 км ясно +15.7 +12.8 83 +16 +16 1016.3 1015.0
00 14.08 штиль 0 10 км ясно +13.7 +12.0 89 +13 +13 1016.3 1015.0
03 14.08 ЮЗ 1 10 км ясно +15.1 +12.4 84 +16 +16 1017.0 1015.7 +13.7
06 14.08 В 3 10 км ясно +24.8 +12.9 48 +27 +35 жарко 1017.2 1015.9
09 14.08 В 4 10 км ясно +29.1 +8.4 27 +29 +40 жарко 1015.7 1014.4
12 14.08 СВ 5
{10}
10 км ясно +30.3 +5.7 21 +29 +34 жарко 1014.3 1013.0
15 14.08 В 5
{11}
10 км ясно +25.9 +8.2 33 +26 +26 жарко 1014.5 1013.2 +30.3
18 14.08 В 3 10 км ясно +19.2 +10.9 59 +20 +20 1015.0 1013.7
21 14.08 В 3 10 км ясно +17.6 +12.8 73 +18 +18 1014.3 1013.0
00 15.08 В 3 10 км ясно +18.4 +14.8 80 +19 +19 1013.1 1011.8
03 15.08 В 4 10 км 3/0
[Ac lent]
+19.5 +17.3 87 +22 +22 комфорт 1012.6 1011.3 +17.6
06 15.08 В 8
{11}
10 км 3/0
[Ac lent]
+26.0 +18.7 64 +31 +32 очень
душно
1012.3 1010.9
09 15.08 В 10
{14}
10 км ясно +28.6 +15.6 45 +31 +32 жарко 1011.6 1010.3
12 15.08 В 10-15
{16}
10 км ясно +28.6 +14.4 42 +31 +31 жарко 1010.4 1009.1
15 15.08 В 9
{13}
10 км ясно +25.4 +18.1 64 +30 +30 душно 1010.0 1008.6 +29.5
18 15.08 В 7
{11}
10 км ясно +22.4 +20.2 87 +29 +29 очень
душно
1010.4 1009.1
21 15.08 В 6-10
{12}
10 км 3/3 600 м
[Cu med, cong]
+22.4 +20.4 88 +29 +29 очень
душно
1009.6 1008.3
00 16.08 В 6
{11}
10 км 5/5 600 м
[Cu med, cong]
+22.7 +20.7 88 +30 +30 очень
душно
1008.5 1007.2
03 16.08 В 4 10 км 10/10 600 м
[St]
+23.3 +20.1 82 +30 +30 очень
душно
1008.7 1007.4 +22.4
06 16.08 Ю 2 10 км 10/10 600 м
[Sc]
+24.2 +21.0 82 +30 +30 очень
душно
1009.1 1007.8
09 16.08 В 3 10 км 8/8 600 м
[Sc]
+27.9 +20.2 63 +34 +37 очень
душно
1008.6 1007.3
12 16.08 В 7-10
{10}
10 км ясно +30.1 +19.3 52 +36 +38 очень
душно
1006.4 1005.1
15 16.08 В 9-12
{13}
10 км ясно +26.4 +17.9 60 +31 +31 душно 1005.3 1004.0 +30.1
18 16.08 В 5
{12}
10 км ясно +23.1 +19.4 80 +30 +30 очень
душно
1006.8 1005.5
21 16.08 В 3 10 км 3/0
[Ci fib]
+21.9 +19.6 87 +27 +27 душно 1006.2 1004.9
00 17.08 В 4 10 км 3/0
[Ci fib]
+22.5 +20.2 87 +29 +29 очень
душно
1006.0 1004.7
03 17.08 СВ 2 10 км 6/0
[Ac lent]
+22.2 +20.5 90 +29 +29 очень
душно
1006.3 1005.0 +21.9
06 17.08 ЮЗ 1 10 км 10/10 600 м
[Sc]
+24.8 +20.0 75 +30 +30 душно 1007.4 1006.1
09 17.08 В 5 10 км 5/0
[Ac lent]
+31.1 +15.5 39 +34 +39 душно 1006.8 1005.5
12 17.08 В 4 10 км 8/0
[Ac lent]
+30.7 +17.6 46 +35 +37 очень
душно
1007.0 1005.7
15 17.08 В 6 10 км 6/0
[Ac lent]
+29.4 +15.1 42 +32 +32 душно 1007.5 1006.2 +31.1
18 17.08 В 3 10 км 10/0
[Ac und]
+24.2 +18.5 70 +29 +29 душно 1009.5 1008.2
21 17.08 ЮЗ 3 10 км 8/0
[Ac lent]
+24.7 +21.2 81 +31 +31 очень
душно
1009.3 1008.0
00 18.08 В 3 10 км 8/0
[Ac lent]
+22.8 +20.0 84 +29 +29 очень
душно
1008.5 1007.2
03 18.08 В 6 10 км 9/0
[Ac As]
+22.8 +18.2 75 +28 +28 душно 1006.6 1005.3 +22.8
06 18.08 ЮВ 5
{12}
10 км 8/0
[Ac lent]
+29.0 +14.1 40 +31 +33 жарко 1006.6 1005.3
09 18.08 ЮЗ 4 10 км 8/0
[Ac lent]
+30.3 +18.7 50 +35 +39 очень
душно
1006.7 1005.4
12 18.08 ЮЗ 4-11
{11}
10 км 8/0
[Ac lent]
+32.4 +19.2 46 +38 +40 очень
душно
1006.1 1004.9
15 18.08 В 4 10 км 9/0
[Ac lent]
+29.0 +16.7 47 +32 +33 душно 1006.7 1005.4 +32.4
18 18.08 ЮВ 3 10 км 3/0
[Ac lent]
+25.1 +18.2 66 +30 +30 душно 1009.5 1008.2
21 18.08 ЮВ 2 10 км 3/0
[Ac lent]
+22.9 +18.4 76 +29 +29 очень
душно
1010.2 1008.9
00 19.08 ЮВ 1 10 км 3/0
[Ac lent]
+22.0 +18.4 80 +27 +27 душно 1010.9 1009.6
03 19.08 В 2 10 км 3/0
[Ac lent]
+21.1 +18.4 85 +25 +26 комфорт 1012.4 1011.0 +21.1
06 19.08 З 1 10 км 3/0
[Ac lent]
+30.1 +20.1 55 +37 +45 очень
душно
1013.3 1012.0
09 19.08 В 2 10 км 3/0
[Ac lent]
+32.7 +20.5 49 +40 +52 опасность
солнечного
удара
1013.1 1011.8
12 19.08 В 5 10 км 3/0
[Ac lent]
+35.4 +16.1 32 +38 +41 очень
душно
1012.5 1011.3
15 19.08 В 3 10 км 4/0
[Ac lent]
+29.1 +16.1 45 +32 +32 душно 1013.5 1012.2 +35.4
18 19.08 В 2 10 км 3/0
[Ac cast]
+23.5 +17.0 67 +27 +27 душно 1014.7 1013.4
21 19.08 В 2 10 км 3/0
[Ac cast]
+21.7 +19.3 86 +27 +27 душно 1014.6 1013.3
00 20.08 В 3 10 км 3/0
[Ac lent]
+21.6 +19.6 88 +27 +27 душно 1014.6 1013.3
03 20.08 ЮВ 2 10 км ясно +22.8 +19.4 81 +29 +30 очень
душно
1014.9 1013.6 +21.6
06 20.08 В 3 10 км ясно +27.9 +20.3 63 +34 +42 очень
душно
1015.7 1014.4
09 20.08 В 5 10 км ясно +34.7 +13.9 29 +36 +44 душно 1014.9 1013.6
12 20.08 В 7-13
{13}
10 км ясно +34.2 +13.8 29 +35 +37 очень
жарко
1013.7 1012.4
15 20.08 В 6
{13}
10 км 3/0
[Ci fib]
+29.6 +15.6 43 +32 +33 душно 1013.6 1012.3 +34.7
18 20.08 В 4 10 км 4/0
[Ac lent Ci fib]
+23.3 +19.6 80 +30 +30 очень
душно
1014.8 1013.5

 

Местоположение метеостанции Шелковская (Чечня, Россия): широта 43.53 долгота 46.37 высота над уровнем моря 13 м.

В архиве по умолчанию представлена погода в Шелковской за последнюю неделю. Архивные данные за месяц целиком и за предыдущие месяцы, начиная с января 2011 года, Вы можете получить, выбрав интересующий диапазон дат из раскрывающегося списка и нажав кнопку "Ввод!".


*Определитесь, кто Вы:
робот инопланетянин человек

Внимание! Время в таблицах - всемирное. Для получения местного времени необходимо прибавить поправку, которая равна 3 ч.

Смотрите также архив погоды в соседних городах и на ближайших метеорологических станциях:

Погода в Гудермесе (Чечня, Россия) (28 км)
Погода в Бабаюрте (Дагестан, Россия) (34 км)
Погода в Хасавюрте (Дагестан, Россия) (35 км)
Погода в Кизляре (Дагестан, Россия) (44 км)
Погода в Грозном (Чечня, Россия) (61 км)
Погода в Терекли-Мектебе (Дагестан, Россия) (77 км)
Погода в Наурской (Чечня, Россия) (86 км)
Погода в Шатое (Чечня, Россия) (91 км)
Погода в Кочубее (Дагестан, Россия) (98 км)
Погода в Буйнакске (Дагестан, Россия) (100 км)

Пояснения к столбцам:

Ветер - указаны скорость ветра в м/с - средняя за 10 мин, порывы в срок и между сроками (в фигурных скобках) и направление, откуда дует ветер: С - северный, СВ - северо-восточный, В - восточный, ЮВ - юго-восточный, Ю - южный, ЮЗ - юго-западный, З - западный, СЗ - северо-западный.
Видимость - горизонтальная дальность видимости в метрах или километрах. При видимости от 1 до 10 км при отсутствии осадков обычно наблюдается дымка, при ухудшении видимости до 1 км и менее - туман. В сухую погоду видимость может ухудшаться дымом, пылью или мглою.
Явления - указаны атмосферные явления, наблюдавшиеся в срок или в последний час перед сроком; фигурными скобками обозначены явления, наблюдавшиеся между сроками (за 1-3 часа до срока); квадратными скобками обозначены град или гололедные отложения с указанием их диаметра в мм.
Облачность - указаны через наклонную черту общая и нижняя облачность в баллах и высота нижней границы облаков в метрах; квадратными скобками обозначены формы облаков: Ci - перистые, Cs - перисто-слоистые, Cc - перисто-кучевые, Ac - высококучевые, As - высокослоистые, Sc - слоисто-кучевые, Ns - слоисто-дождевые, Cu - кучевые, Cb - кучево-дождевые. Подробнее классификацию облаков см. в Атласе облаков (PDF).
T - Температура воздуха - температура, измеренная на высоте 2 м над землей.
Td - Температура точки росы - температура, при понижении до которой содержащийся в воздухе водяной пар достигнет насыщения.
f - Относительная влажность воздуха - влажноcть воздуха, измеренная на высоте 2 м над землей.
Te - Эффективная температура - температура, которую ощущает одетый по сезону человек в тени. Характеристика душности погоды. При расчете учитывается влияние влажности воздуха и скорости ветра на теплоощущения человека.
Tes - Эффективная температура на солнце - температура, которую ощущает человек, с поправкой на солнечный нагрев. Характеристика знойности погоды. Зависит от высоты солнца над горизонтом, облачности и скорости ветра. Ночью, в пасмурную погоду, а также при ветре 12 м/с и более поправка равна нулю.
P - Атмосферное давление - приведенное к уровню моря атмосферное давление.
Po - Атмосферное давление - измеренное на уровне метеостанции атмосферное давление.
Tmin - Минимальная температура - минимум температуры воздуха на высоте 2 м над землей.
Tmax - Максимальная температура - максимум температуры воздуха на высоте 2 м над землей.
R - Количество осадков - Количество выпавших осадков за период времени, мм. При наведении курсора мыши на число - период времени, за который выпало указанное количество осадков.
R24 - Количество осадков - Количество выпавших осадков за 24 часа, мм.
S - Снежный покров - Высота снежного покрова, см. При наведении курсора мыши на число - состояние снежного покрова и степень покрытия местности в баллах.